Regional Weather Roundup
Issued by NWS Wakefield, VA

Home | Current Version | Previous Version | Graphics & Text | Print | Product List | Glossary On
Versions: 1 2 3 4 5 6 7 8 9 10 11 12 13 14 15 16 17 18 19 20 21 22 23 24 25 26 27 28 29 30 31 32 33 34 35 36 37 38 39 40 41 42 43 44 45 46 47 48 49 50
000
ASUS41 KAKQ 210510
RWRAKQ

REGIONAL WEATHER ROUNDUP
NATIONAL WEATHER SERVICE WAKEFIELD VA
100 AM EDT TUE OCT 21 2014

Note: "fair" indicates few or no clouds below 12,000 feet with no
significant weather and/or obstructions to visibility. * = Denotes
station may not report precipitation (e.g., rain,snow,etc.),
thunder or fog.

VAZ042-051-052>054-056-210600-
NORTHERN VIRGINIA

CITY           SKY/WX    TMP DP  RH WIND       PRES   REMARKS
WASH NATIONAL  CLOUDY    59  49  69 S8        29.93F
DULLES         CLOUDY    54  48  80 S5        29.91F
FORT BELVOIR   LGT RAIN  54  52  94 CALM      29.92F
QUANTICO       CLOUDY    58  49  72 W8        29.93F
FREDERICKSBRG* CLOUDY    56  49  79 S3        29.91F
STAFFORD*      CLOUDY    51  51 100 CALM      29.96F
WARRENTON      CLOUDY    53  52  97 CALM      29.91S
CULPEPER*      MOCLDY    54  50  87 CALM      29.92F
MANASSAS*      CLOUDY    55  52  88 CALM      29.91F
LEESBURG*      MOCLDY    54  54 100 S3        29.91F
WINCHESTER     CLOUDY    52  46  82 CALM      29.89F
FRONT ROYAL*   CLOUDY    50  46  87 CALM      29.89F
LURAY*         CLOUDY    52  52 100 CALM      29.91S
$$

VAZ048-049-060>072-079>083-210600-
CENTRAL AND SOUTH CENTRAL VIRGINIA...AND NORTH CENTRAL NORTH CAROLINA

CITY           SKY/WX    TMP DP  RH WIND       PRES   REMARKS
RICHMOND       LGT RAIN  57  47  69 S6        29.94F
CHESTERFIELD*  CLOUDY   N/A N/A N/A S5        29.95F
PETERSBURG*    CLOUDY    54  45  73 CALM      29.96F
HANOVER        CLOUDY    56  47  71 S5        29.95F
TAPPAHANNOCK*  CLOUDY    56  44  64 S3        29.95F
CHARLOTTSVILLE PTCLDY    53  48  83 S6        29.92F
ORANGE*        PTCLDY    54  48  82 CALM      29.93F
LOUISA*        MOCLDY    55  46  71 S3        29.92S
FARMVILLE*     CLOUDY    57  46  67 SW3       29.92F
CREWE*         CLOUDY    56  47  73 CALM      29.94F
FORT PICKETT*  CLOUDY    55  48  75 S6        29.95F
LUNENBURG*     CLOUDY    53  50  89 CALM      29.95F
SOUTH HILL*    CLOUDY    55  52  88 S3        30.01S
LAWRENCEVILLE* CLOUDY    54  48  80 CALM      29.95F
ROANOKE RAPIDS CLOUDY    48  48 100 CALM      29.97F
RALEIGH        CLOUDY    56  50  80 W3        29.98S
$$

VAZ088>098-210600-
SOUTHEAST VIRGINIA

CITY           SKY/WX    TMP DP  RH WIND       PRES   REMARKS
NORFOLK        MOCLDY    58  53  84 S6        29.97F
VIRGINIA BEACH MOCLDY    61  53  75 S5        29.97S
NORFOLK NAVAL  MOCLDY    63  55  75 S7        29.98F
WEST POINT*    MOCLDY    60  49  67 SE3       29.96F
NEWPORT NEWS   CLOUDY    62  54  74 SW7       29.97F
LANGLEY AFB    CLOUDY    60  56  89 S9        29.96F
FORT EUSTIS    CLOUDY    60  59  96 S3        29.95F
WILLIAMSBURG*  CLOUDY    61  55  82 S6        29.97F
HR EXEC AP*    MOCLDY    52  46  82 S5        29.99F
FRANKLIN*      CLOUDY    55  54  94 S3        29.97F
WAKEFIELD      CLOUDY    54  51  90 CALM      29.96F
$$

VAZ020-022-025-037-045-210600-
WEST CENTRAL AND SOUTHWEST VIRGINIA

CITY           SKY/WX    TMP DP  RH WIND       PRES   REMARKS
STAUNTON*      CLOUDY    56  47  73 S6        29.93F
HOT SPRINGS VA CLOUDY    47  43  86 W10       29.93F
LYNCHBURG      PTCLDY    50  48  93 CALM      29.95F
DANVILLE       MOCLDY    56  49  77 SW5       29.96F
SOUTH BOSTON*  NOT AVBL
MARTINSVILLE   CLOUDY    55  53  93 W5        29.98F
ROANOKE        CLOUDY    55  43  63 W9        29.96F
BLACKSBURG     DRIZZLE   52  50  93 CALM      29.99S
DUBLIN*        CLOUDY    54  49  84 W6        29.99F
MARION*        CLOUDY    52  48  86 W6        30.01F
HILLSVILLE*    MOCLDY    52  46  79 W5        29.99F
RICHLANDS*     CLOUDY    56  48  76 W6        29.99S
WISE*          CLEAR     46  46 100 SW7       30.00F
ABINGDON*      CLOUDY    55  50  85 W3        29.99F
$$

MDZ021>025-VAZ099-100-210600-
SOUTHERN MARYLAND AND THE DELMARVA PENINSULA

CITY           SKY/WX    TMP DP  RH WIND       PRES   REMARKS
PATUXENT RIVER MOCLDY    58  46  64 SW5       29.94F
BAY BRIDGE APT NOT AVBL
LEONARDTOWN    MOCLDY    54  45  71 SW3       29.96S
DOVER          CLOUDY    53  47  79 S6        29.92F
GEORGETOWN     CLOUDY    54  45  71 S3        29.96F
EASTON         CLOUDY    56  51  84 CALM      29.98S
CAMBRIDGE      CLOUDY    54  48  82 CALM      29.94F
SALISBURY      CLOUDY    55  46  71 S3        29.96F
OCEAN CITY     CLOUDY    50  47  89 CALM      29.96F
WALLOPS ISLAND CLOUDY    62  54  74 W9        29.97F
ACCOMACK*      CLOUDY    55  50  82 S3        29.96F
$$

NCZ012>017-030>032-210600-
EASTERN NORTH CAROLINA

CITY           SKY/WX    TMP DP  RH WIND       PRES   REMARKS
ELIZABETH CITY PTCLDY    58  54  86 S3        29.98F
AHOSKIE*       CLOUDY    52  50  94 CALM      29.98S
EDENTON*       PTCLDY    62  57  84 SW5       29.98S
CURRITUCK*     PTCLDY    57  55  92 CALM      29.98F
KILL DEVIL HLS PTCLDY    65  60  86 CALM      29.97F
MANTEO         PTCLDY    59  58  96 CALM      29.98F
CAPE HATTERAS  MOCLDY    69  60  73 S10       29.98F
TARBORO*       MOCLDY    55  53  94 CALM      29.98F
GOLDSBORO      MOCLDY    56  55  98 CALM      29.96F
WASHINGTON     CLEAR     55  54  94 CALM      29.98F
GREENVILLE     MOCLDY    54  54 100 CALM      29.99F FOG
NEW BERN       PTCLDY    56  53  90 SW3       29.98F
WILMINGTON     MOCLDY    56  55  97 CALM      29.97F
$$

VAZ048-210600-
ELSEWHERE

CITY           SKY/WX    TMP DP  RH WIND       PRES   REMARKS
HARRISBURG PA  HVY RAIN  53  50  89 VRB5      29.92R FOG
BALTIMORE      LGT RAIN  55  48  77 SW5       29.92S
ANNAPOLIS      CLOUDY    58  44  60 CALM      29.93F
ANDREWS AFB    DRIZZLE   54  48  82 S6        29.92F
WILMINGTON DE  CLOUDY    51  47  86 CALM      29.95F
PHILADELPHIA   CLOUDY    56  44  64 W5        29.96S
WILDWOOD NJ*   MOCLDY    54  45  71 CALM      29.96F
ATLANTIC CITY  MOCLDY    55  46  71 S5        29.96F
HENDERSON NC   CLOUDY    53  47  81 S3        29.97S
GREENSBORO     MOCLDY    59  49  69 SW7       29.97F
ROCKY MOUNT    MOCLDY    55  53  93 CALM      29.97F
FAYETTEVILLE   PTCLDY    59  56  89 CALM      29.97F
CHARLOTTE      CLOUDY    57  52  83 S5        29.98F
$$

VAZ100-210600-
MARINE

STATION/POSITION TIME  TEMP    WIND        PRES    WAVE   SWELL
                       AIR SEA DIR/SP/G            HT/PER HT/PER
                 (UTC) (F)     (DEG/KT/KT) (MB)    (FT/S) (FT/S)
44066 TX TWR #4  0500   64 66  230/ 17/ 21 1015.4F   5/ 6   2/10
CAPE MAY NJ      0500   62 67  170/  4/  5 1013.8F
LEWES DE         0500   58 62  200/  4/  5 1014.1F
15NM E FENWICK I 0500   67 66  220/ 14/ 16 1014.4F   4/ 6   2/12
OCEAN-CITY-INLET 0500   60 65   CALM  /  2 1014.1F
WACHAPREAGUE VA  0500   61 61  240/  4/  6 1014.7F
THOMAS POINT MD  0500   59 64  230/  6/  8 1014.7F
GOOSES REEF MD   0500   62     220/ 10/ 12 1014.3S
COVE POINT MD    0500   60     230/  9/ 11 1013.5F
SOLOMONS ISLAND  0500      66                N/A
BISHOPS HEAD MD  0500   62 58  200/  7/  8 1013.5F
PINEY POINT MD   0500          190/  5/  6   N/A
POTOMAC MD       0500   62     210/ 10/ 12 1013.4F
CAMBRIDGE MD     0500   57 63  150/  2/  5 1013.5F
LEWISETTA VA     0500   59 62  210/  9/ 10 1013.4F
RAPPAHANNOCK LGT 0500          210/ 14/ 16 1014.8F
STINGRAY PT      0500   63     210/  8/ 10 1015.0F
YORK RVR RNG VA  0500   62     210/ 11/ 12 1014.0F
YORKTOWN VA      0500   60 67  200/  5/  6 1014.2F
JAMESTOWN VA     0500   59     200/  8/ 10   N/A
DOMINION TERM VA 0500   61     220/  9/ 11 1014.7F
KIPTOPEKE VA     0500      69  210/ 14/ 16   N/A
CHES BAY BRIDGE  0500   62 67  190/ 13/ 15 1014.1F
CHESAPEAKE LGHT  0400   66     210/ 17/ 19 1015.4F
WILLOUBY STN VA  0500   62     200/ 11/ 14 1013.2F
S CRANEY ISL VA  0500          180/  6/ 11 1014.4F
CAPE HENRY BUOY  0500      68                N/A     3/ 4   2/11
1ST LANDING BUOY 0500   64     210/ 14/ 16 1014.5F
CAPE CHARLES BUO 0500      68                N/A     3/ 5   2/11
64NM E OF VA BCH 0500   71 69  220/ 16/ 19 1014.6F   4/ 5   2/11
DUCK PIER NC     0500   65 69  190/  7/  8 1014.4S
44100 DUCK FRF   0500      71                N/A     3/11   2/11
44056 DUCK FRF   0500                        N/A     2/11   2/11
OREGON INLET NC  0500   67 67  160/  6/  8 1015.1F
HATTERAS NC      0500   71 71  160/  9/ 11 1015.6F
DIAMOND SHLS NC  0500   72     180/ 16/ 19 1015.5F   3/ 8   2/ 8
CAPE LOOKOUT NC  0400   67     240/  4/  4 1016.0R
$$



USA.gov is the U.S. government's official web portal to all federal, state and local government web resources and services.